Location: Newark
(43.6583°N, 1.6617°E)
Time: 20:26:43
(UTC+00:00)

Vanguard 2 Rocket - Pass Details

Date: 22 August 2019
Orbit: 553 x 3327 km, 32.9° (Epoch: 18 October)

Event Time Altitude Azimuth Distance (km) Brightness Sun altitude
Exits shadow 01:53:52 29° 170° (S) 3,413 9.4 -28.3°
Maximum altitude 01:57:37 34° 144° (SE) 3,520 9.6 -27.9°
Drops below altitude 10° 02:12:24 10° 89° (E) 6,038 11.5 -26.4°
Sets 02:18:13 0° 82° (E) 7,249 12.2 -25.7°
